This is the latest recevied weather packets stored in our database for station/object AI4QX-5. If no packets are shown the sender has not sent any weather packets the latest 10 day(s).
| Time | Temp. | Humidity | Pressure | Rain* | Wind** | Luminosity | Snow |
|---|---|---|---|---|---|---|---|
| 1777418400 | 27.78° C | 35% | 1016.1 hPa | 0 mm | - | - | - |
| 1777417800 | 27.78° C | 37% | 1016.2 hPa | 0 mm | - | - | - |
| 1777417200 | 28.33° C | 33% | 1016.2 hPa | 0 mm | - | - | - |
| 1777416600 | 28.33° C | 34% | 1016.4 hPa | 0 mm | - | - | - |
| 1777416000 | 27.78° C | 35% | 1016.4 hPa | 0 mm | - | - | - |
| 1777415400 | 28.33° C | 31% | 1016.7 hPa | 0 mm | - | - | - |
| 1777414800 | 28.89° C | 28% | 1016.7 hPa | 0 mm | - | - | - |
| 1777414200 | 29.44° C | 28% | 1016.8 hPa | 0 mm | - | - | - |
| 1777413000 | 29.44° C | 29% | 1016.8 hPa | 0 mm | - | - | - |
| 1777412400 | 29.44° C | 28% | 1016.8 hPa | 0 mm | - | - | - |
| 1777411800 | 29.44° C | 29% | 1016.8 hPa | 0 mm | - | - | - |
| 1777411200 | 29.44° C | 28% | 1016.9 hPa | 0 mm | - | - | - |
| 1777410600 | 29.44° C | 29% | 1016.9 hPa | 0 mm | - | - | - |
| 1777410000 | 29.44° C | 29% | 1017 hPa | 0 mm | - | - | - |
| 1777409400 | 29.44° C | 29% | 1017.1 hPa | 0 mm | - | - | - |
| 1777408800 | 29.44° C | 30% | 1017.1 hPa | 0 mm | - | - | - |
| 1777408200 | 30° C | 31% | 1017.3 hPa | 0 mm | - | - | - |
| 1777407600 | 29.44° C | 31% | 1017.4 hPa | 0 mm | - | - | - |
| 1777407000 | 30° C | 34% | 1017.6 hPa | 0 mm | - | - | - |
| 1777406400 | 29.44° C | 34% | 1017.6 hPa | 0 mm | - | - | - |
| 1777405800 | 30° C | 32% | 1017.7 hPa | 0 mm | - | - | - |
| 1777405200 | 30° C | 30% | 1017.5 hPa | 0 mm | - | - | - |
| 1777404600 | 30° C | 31% | 1017.6 hPa | 0 mm | - | - | - |
| 1777404000 | 30° C | 31% | 1017.6 hPa | 0 mm | - | - | - |
| 1777403400 | 29.44° C | 32% | 1017.7 hPa | 0 mm | - | - | - |
* Rain latest hour (hover to see other rain measurements)
** Current wind speed in m/s (hover to see current wind gust speed)